Location: downtown San Diego
(32.7310°N, 117.1990°W)
Time: 01:48:37
(UTC-07:00)

Daily predictions for brighter satellites

Satellite Brightness Start Highest point End
(mag) Time Altitude Azimuth Time Altitude Azimuth Time Altitude Azimuth
Cosmos 2219 Rocket 3.8 03:56:01 30° E 03:56:01 30° E 03:59:54 10° NE
COSMOS 2455 4.3 03:58:34 30° NNE 03:58:34 30° NNE 04:01:29 10° NNE
COSMOS 2428 3.9 04:06:34 39° E 04:06:34 39° E 04:11:07 10° NE
ATLAS 2AS CENTAUR R/B 4.0 04:06:01 25° SSE 04:09:56 42° ESE 04:17:21 10° NE
Cosmos 2360 Rocket 4.2 04:28:55 16° N 04:28:55 16° N 04:30:09 10° N
Cosmos 1709 Rocket 4.0 04:26:57 76° ESE 04:27:09 77° E 04:33:27 10° N
Aureole 1 Rocket 4.1 04:35:16 37° S 04:38:22 79° ESE 04:44:18 10° NNE
IDEFIX/ARIANE 42P 3.3 04:33:19 10° NNE 04:36:51 44° N 04:36:51 44° N
CZ-2C R/B 3.5 04:43:12 10° NNE 04:48:09 45° E 04:53:03 10° S
H-2A R/B 3.4 04:48:06 10° NNE 04:50:48 40° NNE 04:50:48 40° NNE
Cosmos 1844 Rocket 2.6 04:50:15 32° NNW 04:52:58 85° ENE 04:58:32 10° SSE
MSX 3.7 04:49:02 10° NNE 04:54:47 87° ESE 04:59:26 16° SSW
Cosmos 1025 Rocket 3.3 04:55:17 39° SSE 04:56:39 63° E 05:00:53 10° NNE
Meteor 1-22 Rocket 4.2 04:51:47 10° N 04:57:07 73° E 05:02:22 10° SSE
Meteor 1-21 4.5 04:51:48 10° S 04:57:18 66° E 05:02:51 10° NNE
Cosmos 2333 Rocket 2.1 04:58:49 63° WNW 04:58:59 63° WNW 05:04:37 10° NNE
PAYLOAD A 4.0 04:55:13 10° NNE 05:00:03 76° ESE 05:05:04 10° S
Cosmos 1536 Rocket 3.3 05:05:45 81° WSW 05:05:53 82° W 05:10:13 10° N
Milstar 3 Cent rocket 4.0 05:05:11 15° SSW 05:07:53 20° SSE 05:11:24 10° ESE
Cosmos 2278 Rocket 4.4 05:03:26 10° N 05:08:01 25° ENE 05:12:35 10° ESE
Cosmos 1844 3.6 05:06:01 10° NNW 05:11:50 84° WSW 05:17:34 10° SSE
Cosmos 2181 Rocket 3.9 05:07:19 10° N 05:13:42 86° W 05:19:56 10° S
Milstar 3 4.2 05:11:30 13° SSW 05:16:27 28° SSE 05:22:17 10° E
Meteor 1-31 Rocket 2.8 05:15:05 10° NNE 05:18:53 76° E 05:22:39 10° S
NOSS 3-4 (A) 3.4 05:14:51 12° SSW 05:20:23 80° ESE 05:26:34 10° NNE
NOSS 0 Rocket 3.8 05:14:18 10° SSW 05:20:26 88° WNW 05:26:38 10° NNE
NOSS 3-4 (C) 3.4 05:14:47 11° SSW 05:20:28 79° ESE 05:26:40 10° NNE
USA 234 3.2 05:16:31 10° SE 05:23:03 78° SW 05:28:43 15° NW
GPS 2-05 Rocket1 2.5 05:27:09 65° ENE 05:27:09 65° ENE 05:29:39 10° E
Cosmos 1470 3.9 05:24:01 10° N 05:27:48 45° E 05:31:31 10° SSE
Cosmos 1707 3.4 05:25:14 10° S 05:29:03 57° E 05:32:53 10° NNE
Celestis-02/Orion 38 4.5 05:25:25 10° SSE 05:30:29 69° WSW 05:35:42 10° NNW
BREEZE-M DEB (TANK) 2.3 05:31:50 23° NW 05:34:10 60° NNE 05:36:30 10° ESE
Cosmos 1733 3.2 05:30:51 10° NNW 05:34:37 55° W 05:38:22 10° S
ERBS 3.0 05:35:41 35° NW 05:35:41 35° NW 05:38:43 10° NNE
Cosmos 1484 Rocket 3.7 05:33:07 10° NNE 05:36:48 48° E 05:40:30 10° S
Cosmos 1190 Rocket 4.0 05:32:19 10° SSW 05:37:37 86° ESE 05:42:57 10° NNE
Meteor PRIRODA 3.6 05:34:27 10° NNE 05:38:12 85° ESE 05:41:55 10° S
Cosmos 389 Rocket 2.5 05:35:24 10° S 05:38:48 75° E 05:42:13 10° NNE
Cosmos 2219 Rocket 3.0 05:37:48 26° W 05:38:53 28° WNW 05:43:37 10° N
COSMOS 2455 4.4 05:41:45 16° NW 05:42:00 16° NW 05:45:32 10° NNW
Cosmos 407 Rocket 3.3 05:37:10 10° SSW 05:42:19 74° WNW 05:47:28 10° NNE
Cosmos 2237 Rocket 2.1 05:37:28 10° SSW 05:43:06 73° WNW 05:48:48 10° NNE
USA 32 4.2 05:40:34 10° SSW 05:45:35 49° W 05:50:39 10° N
CZ-4B R/B 3.1 05:44:16 10° N 05:48:06 43° WNW 05:51:44 10° SW
COSMOS 2428 3.8 05:48:39 20° W 05:50:10 23° WNW 05:54:36 10° N
SeaSat 1 4.1 05:46:25 10° NE 05:50:56 36° ESE 05:55:25 10° S
ATLAS 3B R/B 4.2 05:46:39 10° NNW 05:52:44 35° NE 05:58:57 10° ESE
Delta 142 4.0 05:54:30 18° WSW 05:57:19 44° S 06:01:11 10° ESE
Cosmos 1980 3.9 05:54:00 10° SW 05:59:25 47° WNW 06:04:52 10° N
ATLAS 2AS CENTAUR R/B 3.5 05:53:33 10° WSW 06:00:55 41° NW 06:08:28 10° NNE
Cosmos 2154 Rocket 3.9 05:55:25 10° S 06:01:36 80° W 06:07:49 10° N
COSMO-SKYMED 1 3.1 05:58:02 10° SSE 06:02:18 64° ENE 06:06:37 10° N
IUS-9 SRM-1 3.5 06:00:32 13° SW 06:02:23 31° SSE 06:08:02 10° ESE
Helios 1A Rocket 3.1 06:03:15 10° NNE 06:07:25 80° E 06:11:34 10° S
CENTAUR R/B 4.0 06:00:16 10° NNW 06:08:23 56° NE 06:16:53 10° SE
CZ-4B R/B 3.6 06:04:43 10° NNE 06:09:59 66° ESE 06:15:13 10° S
USA 238 DEB 3.9 06:04:24 10° NW 06:11:36 64° WSW 06:18:56 10° SSE
USA 238 3.9 06:04:31 10° NW 06:11:43 64° WSW 06:19:03 10° SSE
Cosmos 2184 Rocket 4.4 06:06:18 10° SW 06:11:57 38° W 06:17:42 10° NNW
Cosmos 1674 4.4 06:08:39 10° SSE 06:12:05 36° E 06:15:31 10° NNE
Cosmos 1437 Rocket 3.4 06:12:03 10° S 06:15:47 59° E 06:19:31 10° NNE
Cosmos 1954 Rocket 4.0 06:12:08 10° SSW 06:17:23 74° WNW 06:22:37 10° NNE
COBE Rocket 3.9 06:12:55 10° S 06:17:49 79° W 06:22:53 10° NNW
Centaur D AC-28 3.0 06:14:22 10° WSW 06:18:10 58° SSE 06:29:47 10° E
Cosmos 1953 2.3 06:14:16 10° NNW 06:18:16 65° W 06:22:13 10° S
PSLV R/B 4.5 06:15:47 10° NNW 06:19:02 29° WNW 06:22:14 10° SW
Okean O Rocket 1.6 06:16:43 10° N 06:21:09 85° WNW 06:25:30 10° SSW
Cosmos 2341 Rocket 4.2 06:15:08 10° S 06:21:25 84° E 06:27:40 10° N
Centaur D AC-29 3.5 06:04:05 12° W 06:22:50 41° SW 06:27:34 10° SE
Cosmos 1726 3.5 06:19:46 10° N 06:23:16 42° E 06:26:45 10° SSE
Cosmos 1758 4.2 06:20:13 10° NNW 06:23:39 28° W 06:27:06 10° SSW
CZ-2C R/B 3.9 06:22:32 10° NNW 06:25:57 18° WNW 06:29:22 10° WSW
SJ-12 4.2 06:23:41 10° N 06:27:36 46° WNW 06:31:31 10° SSW
Cosmos 1726 Rocket 3.5 06:23:51 10° N 06:28:10 81° W 06:32:28 10° S
RESURS DK-1 2.3 06:26:55 10° SSW 06:31:01 72° WNW 06:35:09 10° NNE
Nadezhda 3 Rocket 4.1 06:25:00 10° NNW 06:31:17 66° W 06:37:31 10° S
